[[{"header":{"parameterUnit":"m.s-1","parameterCategory":1,"la1":30.2991,"la2":30.254,"lo1":-89.0895,"lo2":-89.0444,"dy":0.0017,"dx":0.0017,"nx":28,"ny":28,"refTime":"2023-07-18T21:00:00:Z","depth":0,"parameterNumber":2,"parameterNumberName":"U-component_of_WINDS"},"data":[0,0,0,0,0,0,0,0,0,0,0,0,0,0,0,0,0,0,0,0,0,0,0,0,0,0,0,0,0,0,0,0,0,0,0,0,0,0,0,0,0,0,0,0,0,0,0,0,0,0,0,0,0,0,0,0,0,0,0.5918,0.5918,0,0.596,0.596,0.596,0.5967,0.5967,0.5966,0.5966,0.6008,0.6009,0.601,0,0,0,0,0,0,0,0,0,0,0,0,0,0.5841,0.5842,0.5918,0.5918,0.5919,0.5959,0.596,0.5961,0.5967,0.5967,0.5966,0.5966,0.6007,0.6009,0.6011,0,0,0,0,0,0,0,0,0,0,0,0,0,0.5877,0.5843,0.5918,0.5927,0.5928,0.5959,0.596,0.5961,0.5967,0.5967,0.5966,0.5966,0.6007,0.6009,0.6011,0.6035,0,0,0.6017,0.6018,0,0,0,0,0,0,0,0,0.5875,0.588,0.5925,0.5926,0.5928,0.5958,0.5948,0.5986,0.5967,0.5952,0.5966,0.5965,0.5991,0.5995,0.6004,0.6037,0.6039,0.6018,0.6019,0.602,0.6021,0,0,0,0,0,0,0,0.5873,0.5879,0.5934,0.5926,0.5927,0.5928,0.5933,0.5955,0.5974,0.5954,0.5954,0.5959,0.5992,0.6002,0.6005,0.604,0.6018,0.602,0.6021,0.6022,0.6093,0.6094,0,0,0,0,0,0,0.5869,0.5876,0.5933,0.5935,0.59,0.593,0.5935,0.5948,0.5974,0.5978,0.5959,0.5959,0.5998,0.6002,0.6006,0.6035,0.602,0.6022,0.6023,0.6093,0.6094,0.6094,0,0,0,0,0,0,0.5867,0.5874,0.5931,0.5906,0.5913,0.5932,0.5947,0.595,0.5959,0.5979,0.5982,0.5966,0.5998,0.6003,0.6028,0.6037,0.6023,0.6025,0.6092,0.6093,0.6094,0.6095,0,0,0,0,0,0,0.5865,0.5873,0.5883,0.5906,0.5915,0.5953,0.5947,0.5951,0.5963,0.5963,0.5986,0.5989,0.5998,0.6024,0.603,0.604,0.6027,0.6091,0.6093,0.6094,0.6094,0.6095,0.6097,0,0,0,0,0,0.5862,0.5882,0.5884,0.5891,0.5928,0.5953,0.5958,0.5968,0.5964,0.5974,0.5986,0.5988,0.6035,0.6027,0.6033,0.6044,0.6091,0.6092,0.6094,0.6093,0.6095,0.6097,0,0,0,0,0,0,0.586,0.5885,0.5888,0.5916,0.5932,0.5954,0.5967,0.597,0.5988,0.5987,0.5999,0.6004,0.6028,0.6038,0.6029,0.6068,0.6062,0.6065,0.606,0.6062,0.6064,0.606,0.6028,0,0,0,0,0,0.5862,0.5882,0.5903,0.5925,0.5933,0.5949,0.596,0.5967,0.5984,0.5991,0.6005,0.6021,0.604,0.6052,0.607,0.6095,0.61,0.6106,0.6107,0.6108,0.611,0.6123,0.6126,0.6099,0.6099,0.6099,0,0,0.5868,0.5885,0.5896,0.5925,0.5939,0.5957,0.5955,0.5975,0.5988,0.5994,0.6018,0.6028,0.6047,0.6072,0.6084,0.6082,0.6118,0.611,0.6111,0.6112,0.6125,0.6127,0.6129,0.61,0.6099,0.6099,0,0,0.5888,0.5903,0.5923,0.5936,0.5957,0.5967,0.5971,0.5993,0.6,0.6024,0.6028,0.6044,0.6076,0.6089,0.6099,0.6122,0.6125,0.6128,0.6135,0.6148,0.615,0.6152,0.6159,0.6161,0.613,0.613,0.613,0,0.5893,0.5921,0.5932,0.5952,0.5964,0.597,0.5989,0.6002,0.6027,0.6034,0.6032,0.6071,0.6084,0.6111,0.6117,0.6126,0.613,0.6125,0.6149,0.6151,0.6153,0.616,0.6162,0.613,0.613,0.613,0.613,0,0.5925,0.5945,0.5958,0.5982,0.5996,0.6015,0.6028,0.604,0.6045,0.6055,0.6078,0.6094,0.6115,0.6122,0.6127,0.6149,0.6147,0.6147,0.6141,0.6155,0.6162,0.6165,0.613,0.613,0.613,0.613,0,0,0.5945,0.5974,0.5979,0.5989,0.6012,0.6027,0.6045,0.6066,0.6075,0.6092,0.6108,0.6134,0.6133,0.6145,0.6151,0.6162,0.6178,0.616,0.6161,0.6162,0.6202,0.6202,0.6205,0.6179,0.618,0.618,0.62,0,0.5967,0.6001,0.6011,0.604,0.6057,0.6062,0.6079,0.6093,0.6103,0.6118,0.6128,0.6146,0.6144,0.6151,0.6162,0.6173,0.6186,0.6172,0.6193,0.6193,0.6187,0.6208,0.6208,0.6226,0.6203,0.6203,0.6203,0,0.5997,0.6014,0.6044,0.6063,0.6071,0.6085,0.6104,0.6119,0.6136,0.6141,0.6154,0.6159,0.6178,0.6172,0.6197,0.6188,0.6197,0.6203,0.6204,0.6206,0.6199,0.621,0.6232,0.6234,0.6208,0.6207,0.6207,0,0.6007,0.6038,0.6059,0.6068,0.6091,0.6101,0.6111,0.6127,0.6138,0.6154,0.6161,0.6179,0.6189,0.6202,0.6211,0.6206,0.6235,0.623,0.624,0.6239,0.6245,0.6245,0.6269,0.6252,0.6252,0.6252,0.6252,0,0.603,0.6048,0.6064,0.6077,0.6097,0.6108,0.6127,0.6137,0.6151,0.6165,0.6171,0.6184,0.6196,0.6211,0.6219,0.6238,0.6242,0.6247,0.6248,0.6246,0.6245,0.6251,0.625,0.6253,0.6253,0.6253,0.6253,0,0.6044,0.6056,0.608,0.6099,0.6105,0.6118,0.6134,0.6147,0.6156,0.6174,0.6179,0.6193,0.6211,0.6222,0.6244,0.6249,0.6269,0.6271,0.6264,0.6264,0.6273,0.6272,0.6301,0.6305,0.6287,0.6287,0.6287,0,0.6058,0.6072,0.6092,0.6103,0.6112,0.6129,0.614,0.6151,0.6162,0.6181,0.6191,0.6209,0.6223,0.6251,0.6263,0.6279,0.6281,0.629,0.6283,0.628,0.628,0.6279,0.6279,0.6291,0.6291,0.6291,0.6291,0,0.608,0.6085,0.6101,0.6119,0.6132,0.6146,0.6161,0.6169,0.6181,0.6193,0.6211,0.6223,0.6245,0.6262,0.628,0.6289,0.6292,0.6293,0.6296,0.6293,0.6288,0.629,0.6266,0.6293,0.6292,0.6292,0.6292,0.6292,0.6094,0.6106,0.6122,0.6139,0.6151,0.6164,0.6176,0.6187,0.6202,0.6221,0.6226,0.6245,0.6259,0.6283,0.6293,0.6306,0.6305,0.631,0.6311,0.6311,0.6311,0.6287,0.631,0.631,0.631,0.631,0.631,0,0.6115,0.6125,0.6141,0.6161,0.6174,0.6176,0.6192,0.6203,0.6219,0.6233,0.6247,0.6267,0.6283,0.6296,0.6312,0.6321,0.6323,0.6325,0.6324,0.6326,0.6312,0.6307,0.6323,0.6323,0.6323,0.6323,0.6323,0.6323,0.6128,0.6148,0.6154,0.618,0.619,0.6208,0.6217,0.6229,0.6239,0.6261,0.6275,0.6283,0.6296,0.6314,0.6328,0.6331,0.6337,0.6339,0.6342,0.6329,0.6327,0.6326,0.6321,0.634,0.634,0.6355,0.6355,0.6355]},{"header":{"parameterUnit":"m.s-1","parameterCategory":1,"la1":30.2991,"la2":30.254,"lo1":-89.0895,"lo2":-89.0444,"dy":0.0017,"dx":0.0017,"nx":28,"ny":28,"refTime":"2023-07-18T21:00:00:Z","depth":0,"parameterNumber":3,"parameterNumberName":"V-component_of_WINDS"},"data":[0,0,0,0,0,0,0,0,0,0,0,0,0,0,0,0,0,0,0,0,0,0,0,0,0,0,0,0,0,0,0,0,0,0,0,0,0,0,0,0,0,0,0,0,0,0,0,0,0,0,0,0,0,0,0,0,0,0,4.8085,4.8085,0,4.8092,4.8092,4.8092,4.8012,4.801,4.8008,4.8006,4.8012,4.8014,4.8016,0,0,0,0,0,0,0,0,0,0,0,0,0,4.7999,4.8001,4.8085,4.8085,4.8085,4.8092,4.8092,4.8092,4.8013,4.801,4.8008,4.8005,4.8011,4.8014,4.8016,0,0,0,0,0,0,0,0,0,0,0,0,0,4.8024,4.8002,4.8085,4.8046,4.8043,4.8092,4.8092,4.8092,4.8013,4.801,4.8007,4.8004,4.801,4.8013,4.8017,4.8103,0,0,4.8027,4.8028,0,0,0,0,0,0,0,0,4.8023,4.8027,4.8052,4.8049,4.8045,4.8048,4.8064,4.8096,4.8014,4.8025,4.8006,4.8002,4.8026,4.8028,4.8037,4.8103,4.8103,4.8027,4.8029,4.803,4.8031,0,0,0,0,0,0,0,4.8021,4.8027,4.8087,4.8052,4.8048,4.8028,4.8028,4.807,4.8044,4.8023,4.8018,4.802,4.8024,4.8034,4.8036,4.8103,4.8027,4.803,4.8032,4.8033,4.8239,4.8243,0,0,0,0,0,0,4.8025,4.8026,4.8087,4.8088,4.8026,4.8032,4.8032,4.805,4.8043,4.8039,4.8022,4.8016,4.803,4.8033,4.8036,4.8135,4.803,4.8034,4.8035,4.8236,4.824,4.8244,0,0,0,0,0,0,4.8023,4.8031,4.8087,4.8055,4.8061,4.8037,4.8058,4.8052,4.8062,4.8042,4.8037,4.8037,4.8027,4.8032,4.8087,4.8134,4.8035,4.8038,4.8232,4.8237,4.8242,4.8335,0,0,0,0,0,0,4.8021,4.8031,4.8064,4.8057,4.8063,4.8138,4.8061,4.8055,4.8068,4.806,4.8055,4.8051,4.8025,4.8082,4.809,4.8137,4.8041,4.8227,4.8234,4.824,4.8328,4.8343,4.8356,0,0,0,0,0,4.8019,4.809,4.8066,4.8074,4.8104,4.8141,4.8144,4.8114,4.8072,4.8105,4.8092,4.8051,4.8128,4.8089,4.8097,4.8145,4.8224,4.8232,4.824,4.8321,4.834,4.8356,0,0,0,0,0,0,4.8103,4.8088,4.8062,4.8133,4.8139,4.8128,4.8167,4.8135,4.8152,4.8143,4.8104,4.8103,4.8165,4.8161,4.8116,4.8228,4.8169,4.8179,4.8228,4.8245,4.8259,4.8258,4.8043,0,0,0,0,0,4.813,4.8163,4.8148,4.8212,4.8216,4.8192,4.8207,4.8183,4.8187,4.8189,4.818,4.8186,4.8211,4.8228,4.825,4.8327,4.8324,4.8365,4.8379,4.8391,4.8399,4.8438,4.8456,4.827,4.827,4.827,0,0,4.8186,4.8182,4.8204,4.8229,4.823,4.8264,4.8194,4.8233,4.8257,4.8194,4.8246,4.824,4.8243,4.8309,4.8338,4.8308,4.845,4.8401,4.841,4.8412,4.8448,4.8466,4.8482,4.8275,4.8274,4.8273,0,0,4.8304,4.8305,4.8358,4.8362,4.8365,4.8349,4.8362,4.8356,4.8349,4.84,4.8354,4.8382,4.8427,4.843,4.8438,4.8559,4.8521,4.8567,4.8641,4.8679,4.8694,4.8707,4.8748,4.8764,4.8576,4.8576,4.8577,0,4.8373,4.8422,4.8389,4.8431,4.8442,4.8388,4.8441,4.8446,4.8457,4.8465,4.8432,4.8486,4.8485,4.8551,4.858,4.8589,4.8601,4.8567,4.8695,4.8707,4.8718,4.8758,4.8774,4.8582,4.8581,4.8581,4.858,0,4.8505,4.854,4.8583,4.8595,4.8611,4.8658,4.8632,4.8652,4.8627,4.8614,4.8666,4.8663,4.8683,4.8697,4.8672,4.8759,4.874,4.8702,4.8641,4.8742,4.8778,4.8793,4.859,4.8588,4.8586,4.8585,0,0,4.8676,4.867,4.8686,4.869,4.8691,4.8717,4.8761,4.8782,4.8799,4.8809,4.8844,4.8884,4.8848,4.8857,4.8832,4.8867,4.8961,4.8823,4.8823,4.8848,4.9055,4.9083,4.9101,4.8937,4.894,4.8942,4.9054,0,4.879,4.8866,4.8838,4.8915,4.8946,4.8896,4.8934,4.8938,4.8927,4.8952,4.8939,4.8967,4.8918,4.8923,4.8955,4.8943,4.9002,4.8934,4.8968,4.897,4.8967,4.912,4.915,4.9256,4.9068,4.9071,4.9072,0,4.8933,4.8949,4.9029,4.9024,4.9036,4.9071,4.9087,4.9112,4.9115,4.9105,4.9115,4.9083,4.9126,4.9067,4.9124,4.9079,4.9091,4.9088,4.9091,4.9091,4.9026,4.9123,4.9289,4.9304,4.9094,4.9093,4.9091,0,4.9047,4.9089,4.9142,4.9148,4.9143,4.9169,4.9168,4.9169,4.9183,4.9197,4.9205,4.9224,4.9234,4.9249,4.9223,4.9183,4.9283,4.9223,4.9275,4.9276,4.9297,4.9296,4.9465,4.9308,4.9308,4.9307,4.9307,0,4.9176,4.9227,4.9193,4.9226,4.9281,4.9249,4.9304,4.9298,4.9299,4.9328,4.9286,4.9315,4.928,4.9305,4.9285,4.9335,4.934,4.9332,4.9325,4.9335,4.9335,4.9341,4.9332,4.9311,4.9311,4.931,4.9309,0,4.9313,4.9292,4.9347,4.9339,4.9338,4.9379,4.9371,4.94,4.9387,4.9425,4.9432,4.9411,4.9438,4.9414,4.9441,4.9427,4.9493,4.9477,4.9492,4.9487,4.954,4.9535,4.9718,4.974,4.957,4.9571,4.9573,0,4.9396,4.9434,4.943,4.9447,4.9449,4.9478,4.9492,4.9461,4.9477,4.9484,4.9513,4.9537,4.9555,4.9601,4.9587,4.9607,4.959,4.9653,4.9593,4.9601,4.959,4.9587,4.959,4.9665,4.9667,4.9669,4.967,0,4.9545,4.9533,4.9555,4.9574,4.9592,4.9606,4.9615,4.9632,4.96,4.9621,4.9649,4.9663,4.969,4.9714,4.973,4.9728,4.9694,4.9689,4.9702,4.9711,4.9718,4.9713,4.9524,4.9685,4.9683,4.9682,4.9682,4.9681,4.9656,4.9687,4.9689,4.9715,4.972,4.973,4.9757,4.9747,4.977,4.979,4.9771,4.9804,4.9807,4.9824,4.9827,4.9852,4.9826,4.9845,4.9849,4.9854,4.9861,4.9715,4.9855,4.9855,4.9854,4.9854,4.9853,0,4.9802,4.9801,4.9825,4.984,4.9861,4.9828,4.9837,4.9856,4.9887,4.9892,4.991,4.9942,4.9966,4.9954,4.9974,4.9997,4.9982,5.0003,5.0,5.0,4.9884,4.987,5.0015,5.0015,5.0015,5.0015,5.0015,5.0015,4.988,4.993,4.9919,4.9971,4.9969,5.0002,5.001,5.0019,5.0023,5.0061,5.008,5.0073,5.0071,5.0091,5.0111,5.0107,5.0116,5.0143,5.0133,5.0024,5.0008,4.9993,4.998,5.0145,5.0145,5.0246,5.0247,5.0248]}]]